When you browse on this site, cookies collect data to enhance your experience and personalize the content and advertising you see.
Visit our Privacy Policy to learn more. By continuing to use the site, you agree to this use of cookies and data.
  • In Sweden
  • List of Countries
  • For 7 days
  • Water Temperature
  • Weather Map
  • Weather Widgets
  • user-avatar
    Login

    Hourly Weather Ocotal

    Today, 30 May, Saturday

    Time Temperature Precipitation Wind Pressure Humidity
    00:00 +21°C° 0 mm 0 mps 708 mmHg 97%
    01:00 +21°C° 2.6 mm 0 mps 707 mmHg 97%
    02:00 +21°C° 2.6 mm 0 mps 707 mmHg 98%
    03:00 +23°C° 2.6 mm 1 mps 707 mmHg 98%
    04:00 +23°C° 0.1 mm 1 mps 707 mmHg 97%
    05:00 +23°C° 0.1 mm 1 mps 707 mmHg 97%
    06:00 +23°C° 0.1 mm 1 mps 707 mmHg 96%
    07:00 +24°C° 1.4 mm 1 mps 707 mmHg 95%
    08:00 +24°C° 1.4 mm 1 mps 708 mmHg 94%
    09:00 +24°C° 1.4 mm 1 mps 708 mmHg 93%
    10:00 +24°C° 1.3 mm 1 mps 708 mmHg 93%
    11:00 +24°C° 1.3 mm 1 mps 708 mmHg 94%
    12:00 +24°C° 1.3 mm 1 mps 708 mmHg 94%
    13:00 +25°C° 0.3 mm 1 mps 707 mmHg 92%
    14:00 +25°C° 0.3 mm 1 mps 707 mmHg 90%
    15:00 +23°C° 0.3 mm 0 mps 706 mmHg 89%
    16:00 +23°C° 0.3 mm 0 mps 706 mmHg 91%
    17:00 +23°C° 0.3 mm 0 mps 707 mmHg 93%
    18:00 +22°C° 0.3 mm 0 mps 707 mmHg 94%
    19:00 +22°C° 0.2 mm 0 mps 707 mmHg 95%
    20:00 +22°C° 0.2 mm 0 mps 708 mmHg 95%
    21:00 +22°C° 0.2 mm 0 mps 708 mmHg 95%
    22:00 +21°C° 0 mm 0 mps 708 mmHg 95%
    23:00 +21°C° 0 mm 0 mps 708 mmHg 96%

    Tomorrow, 31 May, Sunday

    Time Temperature Precipitation Wind Pressure Humidity
    00:00 +21°C° 0 mm 0 mps 707 mmHg 96%
    01:00 +21°C° 0 mm 0 mps 707 mmHg 96%
    02:00 +21°C° 0 mm 0 mps 707 mmHg 96%
    03:00 +21°C° 0 mm 0 mps 706 mmHg 95%
    04:00 +21°C° 0.2 mm 0 mps 707 mmHg 95%
    05:00 +21°C° 0.2 mm 0 mps 707 mmHg 95%
    06:00 +21°C° 0.2 mm 0 mps 707 mmHg 95%
    07:00 +21°C° 0.2 mm 0 mps 708 mmHg 94%
    08:00 +22°C° 0.2 mm 0 mps 708 mmHg 92%
    09:00 +23°C° 0.2 mm 0 mps 708 mmHg 90%
    10:00 +23°C° 0.2 mm 0 mps 708 mmHg 88%
    11:00 +24°C° 0.2 mm 0 mps 708 mmHg 87%
    12:00 +26°C° 0.2 mm 1 mps 708 mmHg 85%
    13:00 +26°C° 0.4 mm 1 mps 707 mmHg 85%
    14:00 +26°C° 0.4 mm 1 mps 707 mmHg 84%
    15:00 +27°C° 0.4 mm 1 mps 706 mmHg 84%
    16:00 +26°C° 0.5 mm 1 mps 706 mmHg 88%
    17:00 +25°C° 0.5 mm 1 mps 706 mmHg 91%
    18:00 +24°C° 0.5 mm 1 mps 707 mmHg 95%
    19:00 +24°C° 0.5 mm 1 mps 707 mmHg 95%
    20:00 +24°C° 0.5 mm 1 mps 708 mmHg 96%
    21:00 +24°C° 0.5 mm 1 mps 708 mmHg 96%
    22:00 +21°C° 0.1 mm 0 mps 708 mmHg 96%
    23:00 +21°C° 0.1 mm 0 mps 708 mmHg 97%

    Day after tomorrow, 1 June, Monday

    Time Temperature Precipitation Wind Pressure Humidity
    00:00 +21°C° 0.1 mm 0 mps 708 mmHg 97%
    01:00 +21°C° 0.1 mm 0 mps 707 mmHg 97%
    02:00 +21°C° 0.1 mm 0 mps 707 mmHg 96%
    03:00 +21°C° 0.1 mm 0 mps 707 mmHg 96%
    04:00 +21°C° 0.4 mm 0 mps 707 mmHg 96%
    05:00 +21°C° 0.4 mm 0 mps 707 mmHg 96%
    06:00 +21°C° 0.4 mm 0 mps 707 mmHg 96%
    07:00 +22°C° 0.5 mm 0 mps 708 mmHg 92%
    08:00 +23°C° 0.5 mm 0 mps 709 mmHg 89%
    09:00 +24°C° 0.5 mm 0 mps 709 mmHg 86%
    10:00 +24°C° 1.5 mm 0 mps 709 mmHg 86%
    11:00 +26°C° 1.5 mm 1 mps 708 mmHg 86%
    12:00 +26°C° 1.5 mm 1 mps 708 mmHg 86%
    13:00 +26°C° 0.8 mm 1 mps 707 mmHg 87%
    14:00 +26°C° 0.8 mm 1 mps 707 mmHg 87%
    15:00 +26°C° 0.8 mm 1 mps 707 mmHg 88%
    16:00 +25°C° 0.4 mm 1 mps 707 mmHg 90%
    17:00 +25°C° 0.4 mm 1 mps 707 mmHg 92%
    18:00 +22°C° 0.4 mm 0 mps 707 mmHg 94%
    19:00 +22°C° 0.3 mm 0 mps 707 mmHg 94%
    20:00 +22°C° 0.3 mm 0 mps 708 mmHg 95%
    21:00 +21°C° 0.3 mm 0 mps 708 mmHg 95%
    22:00 +21°C° 0.2 mm 0 mps 708 mmHg 95%
    23:00 +21°C° 0.2 mm 0 mps 708 mmHg 95%

    2 June, Tuesday

    Time Temperature Precipitation Wind Pressure Humidity
    00:00 +21°C° 0.2 mm 0 mps 708 mmHg 95%
    01:00 +21°C° 0.4 mm 0 mps 708 mmHg 95%
    02:00 +21°C° 0.4 mm 0 mps 707 mmHg 95%
    03:00 +21°C° 0.4 mm 0 mps 707 mmHg 95%
    04:00 +21°C° 0.9 mm 0 mps 707 mmHg 96%
    05:00 +21°C° 0.9 mm 0 mps 707 mmHg 96%
    06:00 +21°C° 0.9 mm 0 mps 707 mmHg 96%
    07:00 +23°C° 0.2 mm 0 mps 708 mmHg 90%
    08:00 +24°C° 0.2 mm 0 mps 708 mmHg 84%
    09:00 +26°C° 0.2 mm 0 mps 709 mmHg 78%
    10:00 +27°C° 0.9 mm 0 mps 709 mmHg 76%
    11:00 +28°C° 0.9 mm 0 mps 708 mmHg 73%
    12:00 +29°C° 0.9 mm 0 mps 708 mmHg 71%
    13:00 +29°C° 2.7 mm 0 mps 707 mmHg 73%
    14:00 +28°C° 2.7 mm 0 mps 707 mmHg 76%
    15:00 +29°C° 2.7 mm 1 mps 706 mmHg 79%
    16:00 +28°C° 3.2 mm 1 mps 707 mmHg 84%
    17:00 +26°C° 3.2 mm 1 mps 707 mmHg 90%
    18:00 +25°C° 3.2 mm 1 mps 707 mmHg 95%
    19:00 +25°C° 4.4 mm 1 mps 707 mmHg 96%
    20:00 +24°C° 4.4 mm 1 mps 708 mmHg 96%
    21:00 +24°C° 4.4 mm 1 mps 709 mmHg 96%
    22:00 +24°C° 1.7 mm 1 mps 708 mmHg 96%
    23:00 +24°C° 1.7 mm 1 mps 708 mmHg 96%

    3 June, Wednesday

    Time Temperature Precipitation Wind Pressure Humidity
    00:00 +23°C° 1.7 mm 1 mps 708 mmHg 96%
    01:00 +23°C° 0.7 mm 1 mps 708 mmHg 97%
    02:00 +23°C° 0.7 mm 1 mps 707 mmHg 97%
    03:00 +23°C° 0.7 mm 1 mps 707 mmHg 97%
    04:00 +23°C° 0.5 mm 1 mps 707 mmHg 97%
    05:00 +23°C° 0.5 mm 1 mps 707 mmHg 97%
    06:00 +23°C° 0.5 mm 1 mps 707 mmHg 97%
    07:00 +23°C° 1.3 mm 1 mps 707 mmHg 97%
    08:00 +24°C° 1.3 mm 1 mps 708 mmHg 96%
    09:00 +24°C° 1.3 mm 1 mps 708 mmHg 96%
    10:00 +25°C° 0.1 mm 1 mps 708 mmHg 93%
    11:00 +25°C° 0.1 mm 1 mps 707 mmHg 90%
    12:00 +26°C° 0.1 mm 1 mps 707 mmHg 87%
    13:00 +27°C° 0.4 mm 1 mps 707 mmHg 86%
    14:00 +27°C° 0.4 mm 1 mps 706 mmHg 84%
    15:00 +27°C° 0.4 mm 1 mps 706 mmHg 83%
    16:00 +26°C° 1.4 mm 1 mps 706 mmHg 87%
    17:00 +26°C° 1.4 mm 1 mps 706 mmHg 90%
    18:00 +25°C° 1.4 mm 1 mps 706 mmHg 94%
    19:00 +24°C° 1 mm 1 mps 707 mmHg 94%
    20:00 +24°C° 1 mm 1 mps 707 mmHg 95%
    21:00 +24°C° 1 mm 1 mps 708 mmHg 95%
    22:00 +24°C° 0.1 mm 1 mps 707 mmHg 96%
    23:00 +23°C° 0.1 mm 1 mps 707 mmHg 96%

    4 June, Thursday

    Time Temperature Precipitation Wind Pressure Humidity
    00:00 +23°C° 0.1 mm 1 mps 707 mmHg 96%
    01:00 +23°C° 0 mm 1 mps 706 mmHg 96%
    02:00 +23°C° 0 mm 1 mps 706 mmHg 96%
    03:00 +22°C° 0 mm 1 mps 706 mmHg 97%
    04:00 +20°C° 0 mm 0 mps 706 mmHg 97%
    05:00 +20°C° 0 mm 0 mps 706 mmHg 96%
    06:00 +20°C° 0 mm 0 mps 707 mmHg 96%
    07:00 +22°C° 0 mm 0 mps 707 mmHg 86%
    08:00 +24°C° 0 mm 0 mps 708 mmHg 77%
    09:00 +26°C° 0 mm 0 mps 708 mmHg 67%
    10:00 +29°C° 0 mm 1 mps 708 mmHg 63%
    11:00 +30°C° 0 mm 1 mps 707 mmHg 60%
    12:00 +31°C° 0 mm 1 mps 707 mmHg 57%
    13:00 +31°C° 0.1 mm 1 mps 706 mmHg 59%
    14:00 +30°C° 0.1 mm 1 mps 706 mmHg 61%
    15:00 +30°C° 0.1 mm 1 mps 705 mmHg 63%
    16:00 +29°C° 1.2 mm 1 mps 705 mmHg 72%
    17:00 +27°C° 1.2 mm 1 mps 705 mmHg 80%
    18:00 +25°C° 1.2 mm 1 mps 705 mmHg 89%
    19:00 +25°C° 0.4 mm 1 mps 706 mmHg 90%
    20:00 +22°C° 0.4 mm 0 mps 706 mmHg 90%
    21:00 +21°C° 0.4 mm 0 mps 707 mmHg 91%
    22:00 +21°C° 0.1 mm 0 mps 707 mmHg 92%
    23:00 +21°C° 0.1 mm 0 mps 707 mmHg 92%
    Show more